MEXSAT 3

Last updated on Wed Sep 17 2025 00:02:48 GMT+0000 (Coordinated Universal Time)

1 39035U 12075B 25259.56093858 -.00000045 00000+0 00000+0 0 9990 2 39035 0.0092 155.4943 0001394 0.3450 287.0410 1.00271886 4305
UTC large
Height (km)
Speed (km/s)
/
Latitude / Longitude
Inclination (degrees)
Orbital Period (minutes)
Azimuth
Elevation
Range (km)
Doppler Factor

Next 0 passes for location: London (51.5072 / 0.1276)

Sorry there are no passes over London.